Orbital Elements at Epoch 2459200.5 (2020-Dec-17.0) TDB
Reference: JPL 30 (heliocentric ecliptic J2000)
Element | Value | Uncertainty (1-sigma) | Units |
e | .05120068501607464 | 3.2342e-08 | |
a | 2.776619736326189 | 1.0769e-08 | au |
q | 2.634454903797136 | 8.7746e-08 | au |
i | 1.577389251822055 | 3.454e-06 | deg |
node | 115.1164838799185 | 0.00015308 | deg |
peri | 185.258728267649 | 0.00015864 | deg |
M | 78.49096778122667 | 4.1372e-05 | deg |
tp | 2458832.040108841362 (2019-Dec-14.54010884) | 0.0001942 | TDB |
period | 1689.946812566062 4.63 | 9.8312e-06 2.692e-08 | d yr |
n | .2130244557539453 | 1.2393e-09 | deg/d |
Q | 2.918784568855243 | 1.132e-08 | au |
|
| | Orbit Determination Parameters
Additional Information
|